GFSMW_prec_cthk_057.txt.gz
RH
39 40 43 47 49 52 53 47 47 52 57 59 60 61 64 63 60 57 54 53 49 46 42 40 40 40 43 46 46 46 43 41 42 41 34 34 37 37 39 38 37 40 38
38 37 38 42 46 50 52 50 48 52 56 62 59 61 60 63 62 60 56 49 45 41 41 40 42 45 44 44 46 48 48 47 50 47 39 42 44 47 46 43 44 46 46
42 37 39 41 42 44 47 48 52 54 61 66 64 62 63 65 64 58 52 47 45 42 41 44 47 48 50 52 59 59 55 56 60 56 56 48 46 45 43 45 50 52 48
42 41 43 46 48 46 54 55 58 65 69 69 69 61 63 65 59 55 52 49 44 43 47 51 54 57 58 59 62 59 61 64 66 64 53 49 48 49 47 51 55 51 46
38 41 41 47 56 59 56 59 67 65 73 70 70 63 64 65 55 56 54 47 46 50 57 61 65 69 74 69 66 68 71 71 68 51 42 43 48 52 55 53 53 51 49
43 46 44 47 50 60 59 62 66 61 70 71 69 64 66 56 56 56 51 50 56 62 68 75 78 85 90 85 80 74 71 69 55 50 44 47 54 56 56 55 56 57 55
43 41 46 47 51 56 62 72 66 68 66 64 61 64 59 54 57 54 51 56 67 75 82 88 87 91 89 96 90 77 69 55 46 46 52 58 57 57 58 60 59 56 53
38 38 44 47 50 57 63 76 72 73 66 59 58 58 54 58 59 57 67 75 74 81 84 94 97 88 87 91 84 74 68 55 51 56 60 58 61 64 67 65 65 61 58
32 35 40 46 45 56 64 69 65 65 55 54 55 55 56 59 63 67 76 78 89 87 93 94 90 97 96 85 69 59 67 63 66 66 61 63 62 61 61 60 63 64 63
28 32 35 37 44 51 56 54 52 49 47 54 55 53 59 61 67 74 81 81 93 93 96 81 93 97 89 82 68 65 66 65 62 64 64 59 58 57 57 61 60 62 59
27 28 29 32 38 45 44 40 42 44 50 53 56 63 71 75 77 86 84 79 83 96 83 81 77 80 75 67 71 72 66 66 69 66 60 55 53 52 50 51 50 49 50
34 27 26 32 37 37 38 39 45 52 59 63 70 77 83 89 91 93 82 90 76 77 85 75 87 75 75 77 72 70 69 65 61 57 53 46 46 45 44 43 44 46 47
42 43 39 37 41 46 54 57 56 60 66 73 78 81 91 90 93 87 97 74 77 71 85 88 79 83 80 76 72 65 58 57 55 45 43 40 41 41 40 43 46 46 45
39 39 43 47 53 56 57 62 69 68 70 84 86 92 90 88 89 83 79 72 78 86 80 83 87 84 79 73 67 59 54 45 39 35 35 32 34 38 42 46 48 47 42
37 41 46 51 54 53 61 67 70 80 87 88 92 92 85 82 82 78 78 80 83 88 90 86 83 77 72 65 56 47 42 36 29 28 29 32 35 40 45 49 51 45 46
41 42 46 47 49 53 56 56 68 77 86 89 91 75 78 84 81 79 81 86 89 94 89 91 80 71 62 51 45 42 35 29 30 26 30 34 39 44 50 55 53 49 50
40 39 39 41 48 48 51 55 57 58 63 70 67 73 76 75 77 80 88 92 92 93 91 76 69 53 44 42 39 34 30 32 31 30 32 38 45 51 57 59 54 54 54
37 36 37 37 39 40 40 41 47 54 59 65 73 72 73 75 86 92 96 94 90 84 71 58 40 31 30 30 29 31 34 36 33 34 37 41 49 55 62 61 58 56 57
37 38 38 38 39 41 44 48 60 64 68 67 68 75 84 89 94 95 92 86 74 59 41 29 27 24 24 28 30 33 39 39 36 40 43 45 52 60 63 58 58 58 58
36 35 35 37 40 44 50 57 62 65 68 75 82 84 89 94 90 81 75 62 46 31 21 17 21 22 26 30 33 39 46 45 41 44 48 52 55 59 60 57 60 59 58
34 36 38 41 46 51 56 61 65 69 77 84 89 93 90 85 78 67 50 35 22 19 17 19 21 24 28 31 39 50 51 48 46 46 50 58 62 65 66 64 64 63 60
39 41 44 48 52 56 59 65 76 83 86 87 88 84 76 63 51 37 24 19 18 18 20 22 22 25 30 38 49 53 53 54 50 49 54 61 69 71 73 71 70 68 65
46 50 54 56 59 66 79 79 77 81 82 80 73 63 53 40 28 23 21 21 23 24 25 26 26 28 37 46 50 52 55 59 59 55 59 65 72 76 83 80 78 75 73
55 58 58 63 77 78 77 78 77 76 73 66 54 41 32 24 21 21 21 23 25 28 30 34 42 45 44 43 48 57 60 59 61 59 66 72 74 80 84 85 80 84 79
63 65 77 79 82 79 74 71 71 65 54 42 32 28 25 23 21 21 22 24 26 36 42 45 50 51 45 45 55 60 65 72 75 72 65 68 76 81 85 87 83 86 83
69 74 80 81 76 72 68 64 58 46 36 31 26 22 19 18 19 19 20 24 25 26 31 35 37 34 35 40 48 57 81 88 85 79 68 66 77 84 87 88 86 86 84

GFSMW_prec_cthk_060.txt.gz
RH
40 42 42 44 46 51 52 51 53 55 56 57 57 58 61 66 65 66 62 60 56 56 53 53 43 41 43 45 46 44 46 45 43 44 41 41 44 43 47 48 45 43 43
39 40 41 42 41 45 46 48 49 52 57 56 59 57 60 63 68 67 64 63 62 56 53 46 43 43 46 47 48 50 50 52 53 51 48 47 50 50 49 43 44 49 51
39 38 39 41 43 44 47 49 51 54 56 58 59 60 61 65 66 68 67 65 62 55 48 44 43 46 49 51 56 59 61 61 61 65 63 54 49 46 46 47 51 54 56
51 44 42 46 52 52 52 53 54 56 61 63 62 66 67 66 69 75 65 64 58 53 48 46 48 54 60 66 70 77 78 82 78 76 70 65 56 49 47 48 52 55 54
52 46 47 51 52 60 63 61 64 63 63 61 69 73 79 78 74 73 66 62 58 53 49 52 59 66 71 75 87 87 83 86 80 73 63 58 56 56 57 55 56 57 55
48 49 49 50 53 59 67 65 63 66 66 65 72 81 81 78 77 72 61 63 59 52 56 66 71 73 80 88 96 96 88 89 79 70 65 57 57 59 62 60 55 55 56
43 49 50 49 50 49 58 60 69 69 73 71 79 82 72 72 77 61 56 58 57 59 73 78 82 84 85 87 96 89 92 79 73 60 62 63 65 64 60 59 59 55 55
35 44 41 41 43 54 57 52 65 84 78 80 82 74 67 71 64 55 56 63 70 78 80 81 80 88 92 92 88 88 79 69 61 62 64 62 60 59 57 54 52 50 48
26 29 33 35 37 42 48 50 59 79 65 63 64 60 67 67 59 60 69 72 78 80 87 83 86 87 91 84 87 79 75 69 65 64 62 62 59 54 49 43 38 39 37
26 27 27 29 31 37 39 45 51 57 51 53 54 61 62 60 64 73 74 81 88 90 90 95 87 89 78 77 77 73 77 72 66 66 67 62 55 45 35 33 28 30 35
31 29 27 27 28 30 39 43 52 51 51 52 57 59 58 67 71 81 89 89 96 88 97 94 91 90 83 77 76 77 76 72 70 67 61 51 41 34 33 29 28 30 35
37 33 30 29 30 36 39 43 48 56 52 56 63 63 67 76 79 84 87 96 93 94 97 88 77 80 82 83 83 80 77 74 68 59 45 35 31 33 27 28 30 33 38
40 42 40 40 39 41 44 54 63 65 70 74 79 77 84 83 88 90 89 94 92 87 83 85 89 81 83 84 84 82 74 68 50 37 31 30 30 26 29 31 34 39 42
32 34 37 39 42 46 54 62 60 66 72 72 82 87 85 88 92 96 92 85 81 82 93 83 85 88 86 84 81 73 62 43 34 27 26 24 28 31 32 35 40 43 45
36 39 43 46 50 56 56 57 57 62 66 71 73 78 81 88 94 91 76 92 95 83 79 92 94 93 92 83 73 59 31 27 27 26 26 27 31 36 36 39 42 46 49
42 42 45 48 51 51 51 55 56 54 52 62 66 69 78 87 81 79 78 84 73 88 91 94 97 96 80 66 48 25 23 26 27 27 29 30 36 40 41 44 47 51 55
43 42 43 44 44 46 48 48 49 52 52 55 61 70 75 76 78 78 79 79 89 96 94 92 82 72 59 38 23 23 25 27 27 30 31 33 42 42 45 49 51 55 59
40 39 40 40 40 39 39 41 42 44 49 58 66 70 69 77 77 79 96 91 92 93 87 77 63 50 28 21 22 25 27 27 30 34 35 43 45 45 47 50 53 58 63
40 38 38 40 38 38 39 43 47 53 61 63 66 69 71 76 88 90 91 88 83 77 66 51 34 21 19 20 24 27 28 31 34 40 50 50 46 49 52 52 57 58 59
41 41 36 34 37 40 44 50 55 60 65 66 67 74 83 90 90 87 86 80 71 56 39 23 19 19 18 22 25 28 33 35 44 51 56 54 50 53 55 55 60 60 63
35 34 36 38 41 46 52 57 58 62 63 69 83 87 85 82 84 80 71 59 42 29 22 19 19 19 22 24 27 32 43 49 51 52 52 56 60 59 57 61 67 70 72
36 37 39 42 46 51 54 56 60 68 80 83 80 79 78 76 70 62 48 35 27 23 21 21 19 20 25 31 37 44 49 52 56 55 53 55 65 64 63 67 70 79 81
39 41 45 49 52 55 58 64 77 78 78 77 74 72 70 63 51 38 30 25 23 22 21 22 23 24 28 32 38 44 48 52 54 53 57 57 67 74 74 71 76 82 82
43 47 52 57 60 65 75 77 77 78 72 69 66 61 54 42 33 28 24 22 19 18 20 23 24 24 21 20 20 21 27 33 48 61 64 69 78 86 89 81 80 86 86
50 56 62 67 73 79 77 75 73 69 63 59 54 46 37 30 26 21 17 17 19 20 20 20 22 24 20 15 18 21 27 32 33 51 65 82 92 93 88 85 80 86 88
60 67 71 76 78 76 73 69 63 58 54 48 42 36 30 24 21 20 18 19 18 17 18 20 25 22 25 22 20 19 22 37 43 55 72 92 95 89 89 83 83 87 90

GFSMW_prec_cthk_063.txt.gz
RH
43 44 44 47 50 54 55 55 55 53 51 51 51 54 55 61 71 71 70 68 61 55 55 56 53 52 39 38 42 45 47 49 52 50 49 46 50 51 50 49 51 49 45
42 42 46 46 50 51 50 52 53 56 57 57 56 58 60 63 65 68 70 76 61 58 59 53 50 41 39 41 46 52 60 62 63 63 64 67 62 55 54 53 51 54 54
37 39 40 41 44 47 47 49 52 54 56 59 60 62 61 63 63 71 72 64 63 60 58 52 46 42 43 50 58 63 66 69 74 76 78 70 64 63 63 59 53 54 53
43 37 36 38 42 41 44 46 49 50 54 59 61 63 64 67 68 74 76 70 65 60 57 52 46 46 55 63 66 70 76 77 87 90 83 69 64 65 60 58 53 51 53
53 46 40 43 47 50 54 58 61 63 64 70 69 69 73 76 81 88 85 77 68 62 56 53 51 57 66 72 77 79 77 78 90 87 77 70 62 55 56 57 61 58 56
56 54 51 50 49 56 59 63 71 71 67 73 68 71 77 83 87 89 81 78 70 62 58 61 60 66 77 84 82 85 83 80 86 82 73 62 61 67 64 58 58 57 50
50 50 52 53 53 56 58 59 68 70 72 78 81 76 79 83 86 84 79 78 76 59 62 69 77 79 85 88 85 87 86 87 75 67 63 64 64 61 58 59 52 45 40
45 43 46 52 55 57 58 61 63 63 71 77 84 86 84 81 75 77 78 81 68 67 75 72 82 88 90 86 83 93 90 83 70 66 68 67 62 59 58 53 42 30 26
33 38 41 48 51 49 47 52 50 52 60 76 80 74 71 60 70 80 85 69 73 80 81 84 91 94 96 89 89 94 88 75 72 73 71 66 64 58 47 35 32 25 29
27 25 25 27 33 37 40 43 41 43 50 57 61 60 63 68 75 80 80 79 84 86 89 94 96 96 97 95 89 88 82 79 76 72 69 66 56 44 33 22 23 26 33
29 31 27 25 25 27 30 33 37 42 46 57 58 65 68 73 82 85 86 89 88 90 95 97 94 95 91 84 90 87 79 79 78 71 67 54 40 26 18 21 26 29 38
28 29 35 33 29 30 34 36 43 46 52 59 67 73 74 78 80 86 93 94 94 98 97 97 98 90 93 90 81 82 86 83 76 68 54 37 20 18 20 26 28 30 38
31 31 33 36 40 41 43 45 47 54 62 67 71 81 86 88 88 91 95 94 99 99 95 95 98 98 98 86 83 87 86 77 70 54 36 20 19 20 25 27 30 34 43
34 32 34 38 40 44 48 51 56 61 63 65 68 74 79 86 90 92 97 89 96 97 97 97 98 96 90 86 90 85 81 74 52 33 22 20 21 22 25 30 34 39 49
36 38 39 45 50 52 57 63 62 63 61 63 64 66 72 68 74 71 75 86 90 91 91 90 82 83 91 93 92 83 72 53 27 22 21 22 23 24 26 31 38 50 53
41 41 44 46 50 53 55 58 56 57 53 54 59 60 59 56 56 72 72 81 80 83 82 85 89 91 90 84 76 63 43 26 23 22 23 25 26 28 30 36 48 55 55
31 39 42 46 50 51 53 54 53 52 53 55 53 49 52 61 64 71 77 72 84 82 86 87 86 81 76 69 54 33 25 23 23 23 26 29 31 35 40 47 53 54 56
36 38 40 41 42 44 46 46 43 43 44 46 51 55 64 66 69 71 81 79 87 88 80 77 74 67 55 39 25 21 22 23 24 26 31 35 39 49 54 56 57 56 58
40 40 41 41 41 43 44 41 42 46 49 53 57 60 66 67 72 77 83 84 81 77 74 68 57 43 29 22 21 22 22 24 25 30 36 43 50 56 61 60 57 57 58
41 41 40 41 40 37 39 42 45 48 54 57 63 65 66 76 80 79 80 75 70 63 56 45 35 28 24 23 23 25 28 30 32 33 37 43 51 53 56 57 56 56 62
42 43 40 36 37 40 43 47 50 53 57 60 65 74 74 74 77 72 65 59 54 47 40 33 28 25 24 23 24 29 36 39 39 38 35 35 37 47 55 59 59 62 73
44 39 37 38 40 44 48 51 54 59 63 72 75 74 73 70 63 57 52 47 44 38 31 25 22 20 19 18 18 17 17 18 26 30 32 38 40 42 62 64 64 76 86
40 39 40 41 44 49 52 56 64 70 73 73 73 69 62 56 52 49 45 40 32 24 22 21 21 21 21 21 19 21 20 20 21 19 23 28 35 56 78 80 87 89 90
41 42 45 48 54 58 62 69 71 73 73 70 64 56 53 49 46 43 37 30 25 24 25 24 25 24 22 22 22 20 20 20 20 22 26 29 31 39 64 76 85 95 95
48 48 52 57 62 68 71 70 71 71 67 60 54 50 49 47 43 38 31 28 28 27 24 28 25 23 23 21 19 21 18 18 18 26 26 33 37 51 54 78 92 97 91
54 56 61 67 70 72 70 70 70 65 58 53 52 50 48 44 37 34 33 31 27 21 18 17 19 21 19 17 17 18 19 23 31 33 42 54 46 54 80 88 91 86 85

GFSMW_prec_cthk_069.txt.gz
RH
51 50 57 57 54 52 54 55 73 62 59 43 36 38 43 55 65 74 74 72 74 76 77 83 67 60 57 55 50 49 38 39 45 52 58 58 54 55 58 56 57 54 51
43 41 45 50 47 48 50 51 52 62 56 55 54 56 57 58 63 61 62 70 69 71 75 75 64 61 58 57 52 47 42 47 52 60 64 64 61 58 54 55 59 53 54
43 44 44 51 52 55 53 56 57 61 62 62 62 56 57 58 63 66 59 65 71 75 82 79 70 69 66 58 55 47 48 54 59 66 69 66 66 62 60 55 54 57 57
42 41 43 46 49 53 56 54 60 60 62 61 65 60 60 62 69 69 64 67 75 80 83 80 80 74 73 66 59 57 59 62 66 70 70 72 73 72 67 64 58 54 55
45 43 41 38 40 44 46 49 54 56 58 59 60 58 59 65 71 73 74 71 74 80 88 92 90 84 79 74 69 67 67 71 75 80 79 78 78 80 77 67 68 67 63
51 48 49 51 50 45 45 46 50 57 62 66 72 72 70 70 77 81 78 78 76 82 92 90 91 95 88 87 80 72 76 79 83 84 82 86 89 84 77 74 70 69 65
54 53 53 54 54 53 49 50 53 57 67 69 69 77 80 77 78 81 81 81 85 84 88 91 93 95 95 92 80 80 79 79 90 91 92 94 90 86 82 79 75 71 68
48 51 56 58 54 57 53 55 58 62 68 70 76 78 77 78 81 93 80 77 77 82 86 89 87 96 97 93 86 87 84 89 96 96 96 95 91 86 83 81 74 70 61
45 47 54 59 59 57 58 57 61 64 64 68 71 72 70 70 74 74 66 68 74 84 89 91 90 99 97 91 87 92 91 97 97 97 97 97 93 85 83 79 77 67 54
44 48 48 50 55 60 60 59 62 60 61 65 66 65 63 58 63 62 66 75 81 87 93 97 96 98 93 92 96 97 98 97 98 98 96 96 94 89 85 81 68 55 47
39 41 45 47 50 53 56 57 60 63 65 65 64 65 59 59 63 66 76 76 77 87 93 97 98 93 92 96 98 99 98 96 98 98 96 94 93 89 78 68 56 45 40
37 39 37 38 41 43 51 53 55 60 65 68 67 61 65 66 70 75 72 71 78 85 88 96 96 93 97 99 98 97 98 94 87 94 95 92 85 79 67 58 45 38 37
36 34 31 33 35 40 44 51 55 58 62 64 63 66 70 76 77 73 71 70 71 72 79 93 87 93 88 88 95 91 93 85 84 85 86 84 75 63 54 44 38 37 41
30 35 35 34 33 35 40 46 48 54 58 60 63 65 64 67 69 71 74 71 68 68 68 68 66 62 61 66 72 77 78 77 80 83 79 69 60 51 42 39 38 40 42
28 27 36 43 42 42 43 41 45 47 49 55 61 65 71 72 73 74 72 68 69 70 65 62 63 64 70 73 74 78 82 81 77 66 60 59 51 42 38 38 36 37 37
32 29 30 46 51 51 52 47 54 58 59 64 70 76 77 76 74 69 64 65 62 63 59 62 64 69 69 71 69 67 65 61 53 50 51 44 44 49 49 47 42 37 36
34 36 38 43 47 51 51 53 62 69 72 76 73 73 72 70 64 62 60 55 56 58 64 65 64 64 67 69 62 54 46 41 43 41 41 43 42 46 46 44 46 51 54
32 39 42 40 43 49 51 54 57 65 69 68 65 61 59 55 52 51 52 55 60 64 66 68 73 68 63 54 46 41 39 39 40 41 43 43 40 37 40 41 41 45 50
33 36 38 43 46 47 48 51 53 56 57 55 54 52 47 48 49 52 57 62 63 65 67 66 62 56 51 45 44 42 39 39 40 39 35 33 33 28 30 33 33 31 34
32 34 37 41 44 46 48 50 52 53 54 51 45 45 47 50 56 57 59 61 62 64 62 59 53 49 48 50 47 40 39 34 31 28 27 24 20 18 18 21 23 26 26
34 36 39 41 45 48 50 51 53 51 44 44 46 47 53 56 56 59 61 60 60 58 57 49 48 47 49 46 42 37 34 31 25 21 19 19 18 16 16 17 21 25 24
36 39 41 43 48 50 53 53 47 44 44 46 49 52 54 58 60 61 61 58 56 53 50 50 50 50 48 47 44 41 34 28 23 22 19 15 11 11 10 13 15 17 23
40 40 41 45 50 53 52 47 45 46 49 52 55 58 60 60 60 58 55 52 52 52 53 51 49 48 50 47 44 39 28 24 21 18 15 13 12 14 17 19 22 33 37
44 43 44 47 50 51 50 49 50 53 55 57 60 62 61 59 56 55 56 54 55 54 50 50 51 49 48 45 40 29 25 22 20 17 15 16 19 26 36 43 49 60 61
47 45 47 51 53 53 55 57 58 60 64 65 63 61 59 60 60 59 56 54 52 48 44 46 44 46 41 41 30 27 24 22 19 16 19 25 21 25 35 40 50 66 72
55 52 52 55 57 60 65 71 76 76 73 68 65 64 63 61 62 59 58 56 51 46 44 43 42 40 36 31 28 26 24 22 21 23 27 26 24 28 37 46 48 55 71